ARIANE 5 R/B, 42742

Orbit data source: Space-Track

ARIANE 5 R/B, 42742 is space debris in HEO originally from a launch on Thu, 01 Jun 2017 UTC launched from the French Guiana (FRGUI). Debris objects in space refer to the collection of defunct objects orbiting the Earth. Examples of debris include non-operational satellites, rocket bodies, and fragments generated from explosions, collisions, or faulty payload assembly.

Loading next visibility...
Identifier
42742, 2017-029C
Orbit
HEO
Country
Flag of FRFR
Related business
Manufacturer
Airbus Safran
Mission
Spacecraft
Bus & Motor
ESC-A, Unknown motor
Mass
~5,000 kg wet, ~5,000 kg dry
Launch date (UTC)
2017-06-01 (8 years ago)
Launch vehicle
Unknown
Launch site
French Guiana (FRGUI)
Object type
Payload
Rocket body
Debris
Shape & HBR
Cyl + 1 Nozzle, 3.5 m
Radar Cross Section
41.627 m², Large (>1 m²)

Expand to show TLE details & history
Last TLE update: 14 hours ago

TLE from 14 hours ago
0 ARIANE 5 R/B
1 42742U 17029C   25260.20982156  .00000740  00000-0  61176-3 0  9991
2 42742   5.9159 254.3360 7200826 150.5800 283.5778  2.35400666 69879
Epoch: 2025-09-17T05:02Z
TLE epoch observation values (Epoch: 2025-09-17T05:02:08.582Z)
Latitude
Longitude
-177.67485°
Altitude
24,462.545 km
Speed
3.025 km/s
True Right ascension
16h 56m 59s
True Declination
0° 00' 00"
Sunlit
Object was in daylight at epoch
Visualization orbit readout
Latitude
Unknown
Longitude
Unknown
Altitude
Unknown
Speed
Unknown
Apparent Right ascension
Unknown
Apparent Declination
Unknown
Sunlit
N/A
Visualization observer readout
Local Sidereal Time
11:44:02
Azimuth
Unknown
Elevation
Unknown
Doppler factor
Unknown
Orbital elements
Apogee altitude
34,690.646 km
Perigee altitude
305.186 km
Semi-major axis
23,876.053 km
Eccentricity
0.72008
Inclination
5.9159°
RAAN
254.336°
Arg. of periapsis
150.58°
True anomaly
209.31331°
Mean anomaly
283.5778°
Eccentric anomaly
245.91265°
Mean motion
0.5883 °/min
Orbital period
611.93 mins
BSTAR
0.00061176
Loading maneuver chart data...
Computing Atmospheric mass density...
Loading historical data...
Loading historical data...
Loading historical data...
Loading historical data...
Loading historical data...
Loading historical data...
Loading historical data...
Other satellites on launch #29 in the year 2017 (2017-06-01 UTC)

Documentation

Showing up to 5 results
|